Time,TemperatureF,DewpointF,PressureIn,WindDirection,WindDirectionDegrees,WindSpeedMPH,WindSpeedGustMPH,Humidity,HourlyPrecipIn,Conditions,Clouds,dailyrainin,SoftwareType,DateUTC
2013-03-07 00:00:00,32.7,17.1,30.15,ENE,62,0.0,3.0,52,0.00,,,0.00,meteohub,2013-03-07 05:00:00,
2013-03-07 00:05:00,32.7,17.1,30.15,ENE,62,0.0,3.0,52,0.00,,,0.00,meteohub,2013-03-07 05:05:00,
2013-03-07 00:10:00,32.7,17.4,30.15,ENE,62,0.0,0.0,53,0.00,,,0.00,meteohub,2013-03-07 05:10:00,
2013-03-07 00:15:00,32.4,17.1,30.15,ENE,62,0.0,0.0,53,0.00,,,0.00,meteohub,2013-03-07 05:15:00,
2013-03-07 00:20:00,32.2,17.1,30.15,ENE,62,0.0,0.0,53,0.00,,,0.00,meteohub,2013-03-07 05:20:00,
2013-03-07 00:25:00,32.0,16.9,30.15,ENE,62,0.0,0.0,53,0.00,,,0.00,meteohub,2013-03-07 05:25:00,
2013-03-07 00:30:00,32.0,16.9,30.15,ENE,62,0.0,0.0,53,0.00,,,0.00,meteohub,2013-03-07 05:30:00,
2013-03-07 00:35:00,31.6,16.5,30.15,ENE,62,0.0,0.0,53,0.00,,,0.00,meteohub,2013-03-07 05:35:00,
2013-03-07 00:40:00,31.6,16.9,30.15,ENE,62,0.0,0.0,54,0.00,,,0.00,meteohub,2013-03-07 05:40:00,
2013-03-07 00:45:00,31.6,16.9,30.15,ENE,62,0.0,0.0,54,0.00,,,0.00,meteohub,2013-03-07 05:45:00,
2013-03-07 00:50:00,31.5,16.7,30.15,ENE,62,0.0,0.0,54,0.00,,,0.00,meteohub,2013-03-07 05:50:00,
2013-03-07 00:55:00,31.3,16.5,30.15,ENE,62,0.0,0.0,54,0.00,,,0.00,meteohub,2013-03-07 05:55:00,
2013-03-07 01:00:00,31.3,17.1,30.15,ENE,62,0.0,0.0,55,0.00,,,0.00,meteohub,2013-03-07 06:00:00,
2013-03-07 01:05:00,31.1,16.9,30.15,ENE,62,0.0,0.0,55,0.00,,,0.00,meteohub,2013-03-07 06:05:00,
2013-03-07 01:10:00,31.1,16.9,30.15,ENE,62,0.0,0.0,55,0.00,,,0.00,meteohub,2013-03-07 06:10:00,
2013-03-07 01:15:00,31.3,17.4,30.15,ENE,62,2.0,0.0,56,0.00,,,0.00,meteohub,2013-03-07 06:15:00,
2013-03-07 01:20:00,31.1,17.2,30.15,ENE,62,0.0,3.0,56,0.00,,,0.00,meteohub,2013-03-07 06:20:00,
2013-03-07 01:25:00,31.1,17.2,30.15,ENE,62,0.0,3.0,56,0.00,,,0.00,meteohub,2013-03-07 06:25:00,
2013-03-07 01:31:00,31.5,18.0,30.15,SSE,164,3.0,3.0,57,0.00,,,0.00,meteohub,2013-03-07 06:31:00,
2013-03-07 01:36:00,31.8,18.3,30.15,West,278,0.0,4.0,57,0.00,,,0.00,meteohub,2013-03-07 06:36:00,
2013-03-07 01:41:00,31.6,17.8,30.15,ENE,59,0.0,4.0,56,0.00,,,0.00,meteohub,2013-03-07 06:41:00,
2013-03-07 01:46:00,31.5,17.6,30.15,East,95,0.0,3.0,56,0.00,,,0.00,meteohub,2013-03-07 06:46:00,
2013-03-07 01:51:00,31.3,17.8,30.15,East,95,0.0,3.0,57,0.00,,,0.00,meteohub,2013-03-07 06:51:00,
2013-03-07 01:56:00,31.5,18.0,30.15,East,85,0.0,5.0,57,0.00,,,0.00,meteohub,2013-03-07 06:56:00,
2013-03-07 02:01:00,31.6,18.1,30.15,East,85,0.0,5.0,57,0.00,,,0.00,meteohub,2013-03-07 07:01:00,
2013-03-07 02:06:00,31.8,18.3,30.15,East,85,0.0,5.0,57,0.00,,,0.00,meteohub,2013-03-07 07:06:00,
2013-03-07 02:11:00,31.5,18.0,30.15,East,85,0.0,3.0,57,0.00,,,0.00,meteohub,2013-03-07 07:11:00,
2013-03-07 02:18:00,31.3,17.8,-100.00,East,85,0.0,3.0,57,0.00,,,0.00,meteohub,2013-03-07 07:18:00,
2013-03-07 02:23:00,30.9,17.4,30.15,East,85,0.0,3.0,57,0.00,,,0.00,meteohub,2013-03-07 07:23:00,
2013-03-07 02:28:00,30.7,17.2,30.15,East,85,0.0,0.0,57,0.00,,,0.00,meteohub,2013-03-07 07:28:00,
2013-03-07 02:33:00,30.7,17.2,30.15,East,85,0.0,0.0,57,0.00,,,0.00,meteohub,2013-03-07 07:33:00,
2013-03-07 02:38:00,30.6,17.1,30.15,East,85,0.0,0.0,57,0.00,,,0.00,meteohub,2013-03-07 07:38:00,
2013-03-07 02:45:00,30.6,17.6,30.15,East,85,0.0,0.0,58,0.00,,,0.00,meteohub,2013-03-07 07:45:00,
2013-03-07 02:52:00,30.4,17.4,30.18,SW,229,0.0,2.0,58,0.00,,,0.00,meteohub,2013-03-07 07:52:00,
2013-03-07 02:58:00,30.4,17.4,30.18,SW,235,0.0,4.0,58,0.00,,,0.00,meteohub,2013-03-07 07:58:00,
2013-03-07 03:03:00,30.2,17.2,30.18,SW,235,0.0,4.0,58,0.00,,,0.00,meteohub,2013-03-07 08:03:00,
2013-03-07 03:11:00,30.0,17.4,30.18,SW,235,0.0,3.0,59,0.00,,,0.00,meteohub,2013-03-07 08:11:00,
2013-03-07 03:17:00,29.8,17.2,30.18,SW,235,0.0,0.0,59,0.00,,,0.00,meteohub,2013-03-07 08:17:00,
2013-03-07 03:22:00,29.8,17.2,30.18,SW,235,0.0,0.0,59,0.00,,,0.00,meteohub,2013-03-07 08:22:00,
2013-03-07 03:27:00,29.7,17.1,30.18,SW,235,0.0,0.0,59,0.00,,,0.00,meteohub,2013-03-07 08:27:00,
2013-03-07 03:32:00,29.5,16.9,30.18,SW,235,0.0,0.0,59,0.00,,,0.00,meteohub,2013-03-07 08:32:00,
2013-03-07 03:40:00,29.5,17.2,30.18,SSW,198,0.0,3.0,60,0.00,,,0.00,meteohub,2013-03-07 08:40:00,
2013-03-07 03:45:00,29.3,17.1,30.18,SSW,198,0.0,3.0,60,0.00,,,0.00,meteohub,2013-03-07 08:45:00,
2013-03-07 03:52:00,29.1,16.9,30.18,SSW,198,0.0,3.0,60,0.00,,,0.00,meteohub,2013-03-07 08:52:00,
2013-03-07 03:57:00,28.9,16.9,30.18,SSW,198,0.0,0.0,60,0.00,,,0.00,meteohub,2013-03-07 08:57:00,
2013-03-07 04:02:00,28.9,16.9,30.18,SSW,198,0.0,0.0,60,0.00,,,0.00,meteohub,2013-03-07 09:02:00,
2013-03-07 04:07:00,28.8,16.7,30.18,SSW,198,0.0,0.0,60,0.00,,,0.00,meteohub,2013-03-07 09:07:00,
2013-03-07 04:12:00,28.8,17.1,30.18,SSW,198,0.0,0.0,61,0.00,,,0.00,meteohub,2013-03-07 09:12:00,
2013-03-07 04:17:00,28.8,17.1,30.18,SSW,198,0.0,0.0,61,0.00,,,0.00,meteohub,2013-03-07 09:17:00,
2013-03-07 04:22:00,28.8,17.1,30.18,SSW,198,0.0,0.0,61,0.00,,,0.00,meteohub,2013-03-07 09:22:00,
2013-03-07 04:27:00,28.6,16.9,30.18,SSW,198,0.0,0.0,61,0.00,,,0.00,meteohub,2013-03-07 09:27:00,
2013-03-07 04:32:00,28.6,16.9,30.18,SSW,198,0.0,0.0,61,0.00,,,0.00,meteohub,2013-03-07 09:32:00,
2013-03-07 04:37:00,28.6,17.2,30.18,SSW,198,0.0,0.0,62,0.00,,,0.00,meteohub,2013-03-07 09:37:00,
2013-03-07 04:42:00,28.6,17.2,30.18,SSW,198,0.0,0.0,62,0.00,,,0.00,meteohub,2013-03-07 09:42:00,
2013-03-07 04:47:00,28.4,17.1,30.21,SSW,198,0.0,0.0,62,0.00,,,0.00,meteohub,2013-03-07 09:47:00,
2013-03-07 04:52:00,28.2,16.9,30.21,SSW,198,0.0,0.0,62,0.00,,,0.00,meteohub,2013-03-07 09:52:00,
2013-03-07 04:57:00,28.0,16.7,30.21,SSW,198,0.0,0.0,62,0.00,,,0.00,meteohub,2013-03-07 09:57:00,
2013-03-07 05:02:00,28.0,17.1,30.21,SSW,198,0.0,0.0,63,0.00,,,0.00,meteohub,2013-03-07 10:02:00,
2013-03-07 05:07:00,28.0,17.1,30.21,SSW,198,0.0,0.0,63,0.00,,,0.00,meteohub,2013-03-07 10:07:00,
2013-03-07 05:12:00,27.9,16.9,30.21,SSW,198,0.0,0.0,63,0.00,,,0.00,meteohub,2013-03-07 10:12:00,
2013-03-07 05:17:00,27.9,16.9,30.21,SSW,198,0.0,0.0,63,0.00,,,0.00,meteohub,2013-03-07 10:17:00,
2013-03-07 05:22:00,27.9,16.9,30.21,SSW,198,0.0,0.0,63,0.00,,,0.00,meteohub,2013-03-07 10:22:00,
2013-03-07 05:29:00,27.9,16.9,30.21,SSW,198,0.0,0.0,63,0.00,,,0.00,meteohub,2013-03-07 10:29:00,
2013-03-07 05:34:00,27.7,17.1,30.21,SSW,198,0.0,0.0,64,0.00,,,0.00,meteohub,2013-03-07 10:34:00,
2013-03-07 05:42:00,27.5,16.9,30.21,SSW,198,0.0,0.0,64,0.00,,,0.00,meteohub,2013-03-07 10:42:00,
2013-03-07 05:47:00,27.5,16.9,30.24,SSW,198,0.0,0.0,64,0.00,,,0.00,meteohub,2013-03-07 10:47:00,
2013-03-07 05:52:00,27.7,17.4,30.24,SSW,198,0.0,0.0,65,0.00,,,0.00,meteohub,2013-03-07 10:52:00,
2013-03-07 05:57:00,27.7,17.4,30.24,SSW,198,0.0,0.0,65,0.00,,,0.00,meteohub,2013-03-07 10:57:00,
2013-03-07 06:02:00,27.5,17.2,30.24,SSW,198,0.0,0.0,65,0.00,,,0.00,meteohub,2013-03-07 11:02:00,
2013-03-07 06:07:00,27.5,17.6,30.24,SSW,198,0.0,0.0,66,0.00,,,0.00,meteohub,2013-03-07 11:07:00,
2013-03-07 06:14:00,27.3,17.4,30.24,SSW,198,0.0,0.0,66,0.00,,,0.00,meteohub,2013-03-07 11:14:00,
2013-03-07 06:19:00,27.3,17.4,30.24,SSW,198,0.0,0.0,66,0.00,,,0.00,meteohub,2013-03-07 11:19:00,
2013-03-07 06:26:00,27.1,17.2,30.24,SSW,198,0.0,0.0,66,0.00,,,0.00,meteohub,2013-03-07 11:26:00,
2013-03-07 06:31:00,27.3,17.4,30.24,SSW,198,0.0,0.0,66,0.00,,,0.00,meteohub,2013-03-07 11:31:00,
2013-03-07 06:36:00,27.1,17.2,30.24,SSW,198,0.0,0.0,66,0.00,,,0.00,meteohub,2013-03-07 11:36:00,
2013-03-07 06:41:00,27.1,17.2,30.24,SSW,198,0.0,0.0,66,0.00,,,0.00,meteohub,2013-03-07 11:41:00,
2013-03-07 06:47:00,27.0,17.4,30.24,SSW,198,0.0,0.0,67,0.00,,,0.00,meteohub,2013-03-07 11:47:00,
2013-03-07 06:52:00,27.1,17.6,30.24,SSW,198,0.0,0.0,67,0.00,,,0.00,meteohub,2013-03-07 11:52:00,
2013-03-07 06:57:00,27.1,17.6,30.24,SSW,198,0.0,0.0,67,0.00,,,0.00,meteohub,2013-03-07 11:57:00,
2013-03-07 07:02:00,27.1,17.6,30.24,SSW,198,0.0,0.0,67,0.00,,,0.00,meteohub,2013-03-07 12:02:00,
2013-03-07 07:07:00,27.3,17.8,30.24,SSW,198,0.0,0.0,67,0.00,,,0.00,meteohub,2013-03-07 12:07:00,
2013-03-07 07:12:00,27.5,18.0,30.24,SSW,198,0.0,0.0,67,0.00,,,0.00,meteohub,2013-03-07 12:12:00,
2013-03-07 07:17:00,27.9,18.7,30.24,SSW,198,0.0,0.0,68,0.00,,,0.00,meteohub,2013-03-07 12:17:00,
2013-03-07 07:22:00,28.0,18.9,30.24,SSW,198,0.0,0.0,68,0.00,,,0.00,meteohub,2013-03-07 12:22:00,
2013-03-07 07:27:00,28.0,18.9,30.24,SSW,198,0.0,0.0,68,0.00,,,0.00,meteohub,2013-03-07 12:27:00,
2013-03-07 07:33:00,28.4,19.2,30.24,SSW,198,0.0,0.0,68,0.00,,,0.00,meteohub,2013-03-07 12:33:00,
2013-03-07 07:38:00,37.4,25.5,30.24,SSW,198,0.0,0.0,62,0.00,,,0.00,meteohub,2013-03-07 12:38:00,
2013-03-07 07:43:00,38.8,26.1,30.24,SSW,198,0.0,0.0,60,0.00,,,0.00,meteohub,2013-03-07 12:43:00,
2013-03-07 07:48:00,43.7,26.8,30.24,SSW,198,0.0,0.0,51,0.00,,,0.00,meteohub,2013-03-07 12:48:00,
2013-03-07 07:53:00,43.5,25.7,30.24,SSW,198,0.0,0.0,49,0.00,,,0.00,meteohub,2013-03-07 12:53:00,
2013-03-07 08:00:00,43.7,25.3,30.24,SSW,198,0.0,0.0,48,0.00,,,0.00,meteohub,2013-03-07 13:00:00,
2013-03-07 08:05:00,46.8,26.6,30.24,SSW,198,0.0,0.0,45,0.00,,,0.00,meteohub,2013-03-07 13:05:00,
2013-03-07 08:10:00,50.4,27.0,30.24,West,275,0.0,0.0,40,0.00,,,0.00,meteohub,2013-03-07 13:10:00,
2013-03-07 08:15:00,53.4,29.1,30.27,West,275,0.0,0.0,39,0.00,,,0.00,meteohub,2013-03-07 13:15:00,
2013-03-07 08:22:00,56.7,30.0,30.27,NW,325,0.0,0.0,36,0.00,,,0.00,meteohub,2013-03-07 13:22:00,
2013-03-07 08:27:00,58.1,29.8,30.27,WNW,303,0.0,0.0,34,0.00,,,0.00,meteohub,2013-03-07 13:27:00,
2013-03-07 08:32:00,59.7,28.2,30.27,NW,315,0.0,3.0,30,0.00,,,0.00,meteohub,2013-03-07 13:32:00,
2013-03-07 08:37:00,60.8,28.4,30.27,North,0,3.0,3.0,29,0.00,,,0.00,meteohub,2013-03-07 13:37:00,
2013-03-07 08:42:00,61.3,27.1,30.27,North,9,0.0,3.0,27,0.00,,,0.00,meteohub,2013-03-07 13:42:00,
2013-03-07 08:47:00,62.2,27.0,30.27,North,353,4.0,4.0,26,0.00,,,0.00,meteohub,2013-03-07 13:47:00,
2013-03-07 08:52:00,62.2,27.0,30.27,NNW,346,0.0,4.0,26,0.00,,,0.00,meteohub,2013-03-07 13:52:00,
2013-03-07 08:57:00,61.9,25.7,30.27,NNW,341,3.0,4.0,25,0.00,,,0.00,meteohub,2013-03-07 13:57:00,
2013-03-07 09:02:00,61.9,26.6,30.27,NNE,20,3.0,5.0,26,0.00,,,0.00,meteohub,2013-03-07 14:02:00,
2013-03-07 09:07:00,61.9,26.6,30.27,NE,42,2.0,5.0,26,0.00,,,0.00,meteohub,2013-03-07 14:07:00,
2013-03-07 09:12:00,59.7,26.6,30.27,NNE,32,4.0,4.0,28,0.00,,,0.00,meteohub,2013-03-07 14:12:00,
2013-03-07 09:17:00,56.3,25.3,30.27,NNE,12,3.0,5.0,30,0.00,,,0.00,meteohub,2013-03-07 14:17:00,
2013-03-07 09:22:00,54.3,25.2,30.27,NNW,342,0.0,5.0,32,0.00,,,0.00,meteohub,2013-03-07 14:22:00,
2013-03-07 09:27:00,52.5,24.3,30.27,NE,47,6.0,6.0,33,0.00,,,0.00,meteohub,2013-03-07 14:27:00,
2013-03-07 09:32:00,51.8,23.5,30.27,NE,52,3.0,6.0,33,0.00,,,0.00,meteohub,2013-03-07 14:32:00,
2013-03-07 09:38:00,51.4,23.4,30.27,NNE,15,4.0,6.0,33,0.00,,,0.00,meteohub,2013-03-07 14:38:00,
2013-03-07 09:46:00,48.7,20.1,30.27,NE,42,3.0,6.0,32,0.00,,,0.00,meteohub,2013-03-07 14:46:00,
2013-03-07 09:52:00,47.3,19.6,30.27,ESE,121,4.0,7.0,33,0.00,,,0.00,meteohub,2013-03-07 14:52:00,
2013-03-07 09:57:00,46.9,19.4,30.27,NNE,31,0.0,7.0,33,0.00,,,0.00,meteohub,2013-03-07 14:57:00,
2013-03-07 10:04:00,46.2,19.4,30.27,NNE,13,5.0,6.0,34,0.00,,,0.00,meteohub,2013-03-07 15:04:00,
2013-03-07 10:09:00,46.0,19.9,30.27,North,9,4.0,8.0,35,0.00,,,0.00,meteohub,2013-03-07 15:09:00,
2013-03-07 10:16:00,45.9,20.5,30.27,WSW,247,0.0,8.0,36,0.00,,,0.00,meteohub,2013-03-07 15:16:00,
2013-03-07 10:21:00,45.5,20.7,30.27,North,5,4.0,6.0,37,0.00,,,0.00,meteohub,2013-03-07 15:21:00,
2013-03-07 10:27:00,45.5,20.7,30.27,North,11,5.0,7.0,37,0.00,,,0.00,meteohub,2013-03-07 15:27:00,
2013-03-07 10:32:00,45.5,20.7,30.24,SE,125,5.0,7.0,37,0.00,,,0.00,meteohub,2013-03-07 15:32:00,
2013-03-07 10:40:00,45.5,20.7,30.24,North,8,4.0,5.0,37,0.00,,,0.00,meteohub,2013-03-07 15:40:00,
2013-03-07 10:45:00,45.3,20.7,30.24,ESE,107,0.0,6.0,37,0.00,,,0.00,meteohub,2013-03-07 15:45:00,
2013-03-07 10:50:00,45.5,20.7,30.24,WNW,297,5.0,6.0,37,0.00,,,0.00,meteohub,2013-03-07 15:50:00,
2013-03-07 10:57:00,45.7,20.8,30.24,NE,40,0.0,6.0,37,0.00,,,0.00,meteohub,2013-03-07 15:57:00,
2013-03-07 11:02:00,45.9,21.0,30.24,NW,311,4.0,5.0,37,0.00,,,0.00,meteohub,2013-03-07 16:02:00,
2013-03-07 11:07:00,46.2,21.9,30.24,North,0,0.0,6.0,38,0.00,,,0.00,meteohub,2013-03-07 16:07:00,
2013-03-07 11:12:00,46.2,21.9,30.24,NNE,12,4.0,6.0,38,0.00,,,0.00,meteohub,2013-03-07 16:12:00,
2013-03-07 11:17:00,46.4,21.6,30.24,WSW,254,4.0,6.0,37,0.00,,,0.00,meteohub,2013-03-07 16:17:00,
2013-03-07 11:22:00,46.4,21.6,30.24,NE,37,5.0,6.0,37,0.00,,,0.00,meteohub,2013-03-07 16:22:00,
2013-03-07 11:27:00,46.4,21.6,30.24,North,6,3.0,7.0,37,0.00,,,0.00,meteohub,2013-03-07 16:27:00,
2013-03-07 11:32:00,46.4,21.6,30.24,North,357,4.0,7.0,37,0.00,,,0.00,meteohub,2013-03-07 16:32:00,
2013-03-07 11:37:00,46.6,21.7,30.24,North,6,3.0,7.0,37,0.00,,,0.00,meteohub,2013-03-07 16:37:00,
2013-03-07 11:42:00,46.8,21.9,30.24,North,5,4.0,6.0,37,0.00,,,0.00,meteohub,2013-03-07 16:42:00,
2013-03-07 11:47:00,46.9,22.1,30.24,North,9,2.0,5.0,37,0.00,,,0.00,meteohub,2013-03-07 16:47:00,
2013-03-07 11:52:00,46.9,22.1,30.24,North,6,0.0,6.0,37,0.00,,,0.00,meteohub,2013-03-07 16:52:00,
2013-03-07 11:57:00,47.1,22.1,30.24,ENE,75,4.0,6.0,37,0.00,,,0.00,meteohub,2013-03-07 16:57:00,
2013-03-07 12:02:00,47.5,22.5,30.24,SSE,158,5.0,6.0,37,0.00,,,0.00,meteohub,2013-03-07 17:02:00,
2013-03-07 12:07:00,47.7,22.1,30.24,WSW,246,4.0,6.0,36,0.00,,,0.00,meteohub,2013-03-07 17:07:00,
2013-03-07 12:12:00,47.8,22.8,30.24,WSW,253,4.0,6.0,37,0.00,,,0.00,meteohub,2013-03-07 17:12:00,
2013-03-07 12:17:00,48.2,22.5,30.24,NW,323,2.0,10.0,36,0.00,,,0.00,meteohub,2013-03-07 17:17:00,
2013-03-07 12:23:00,48.4,22.6,30.24,SSW,212,4.0,10.0,36,0.00,,,0.00,meteohub,2013-03-07 17:23:00,
2013-03-07 12:29:00,48.4,22.6,30.24,NNW,327,4.0,6.0,36,0.00,,,0.00,meteohub,2013-03-07 17:29:00,
2013-03-07 12:34:00,48.7,23.0,30.24,South,180,5.0,6.0,36,0.00,,,0.00,meteohub,2013-03-07 17:34:00,
2013-03-07 12:40:00,48.7,23.0,30.24,South,185,4.0,6.0,36,0.00,,,0.00,meteohub,2013-03-07 17:40:00,
2013-03-07 12:47:00,49.3,23.5,30.21,WSW,252,5.0,9.0,36,0.00,,,0.00,meteohub,2013-03-07 17:47:00,
2013-03-07 12:52:00,49.3,23.5,30.21,NNE,32,3.0,9.0,36,0.00,,,0.00,meteohub,2013-03-07 17:52:00,
2013-03-07 12:57:00,49.8,23.9,30.21,NNE,28,3.0,6.0,36,0.00,,,0.00,meteohub,2013-03-07 17:57:00,
2013-03-07 13:02:00,49.6,23.2,30.21,NE,46,2.0,5.0,35,0.00,,,0.00,meteohub,2013-03-07 18:02:00,
2013-03-07 13:07:00,50.2,22.8,30.21,South,185,6.0,6.0,34,0.00,,,0.00,meteohub,2013-03-07 18:07:00,
2013-03-07 13:12:00,50.5,23.2,30.21,NNW,334,4.0,8.0,34,0.00,,,0.00,meteohub,2013-03-07 18:12:00,
2013-03-07 13:17:00,50.5,22.5,30.21,NNE,30,6.0,8.0,33,0.00,,,0.00,meteohub,2013-03-07 18:17:00,
2013-03-07 13:25:00,50.2,22.1,30.21,SW,220,3.0,8.0,33,0.00,,,0.00,meteohub,2013-03-07 18:25:00,
2013-03-07 13:32:00,50.2,21.4,30.21,NE,35,2.0,8.0,32,0.00,,,0.00,meteohub,2013-03-07 18:32:00,
2013-03-07 13:37:00,50.2,21.4,30.21,ENE,72,4.0,8.0,32,0.00,,,0.00,meteohub,2013-03-07 18:37:00,
2013-03-07 13:42:00,50.4,21.6,30.21,North,7,3.0,5.0,32,0.00,,,0.00,meteohub,2013-03-07 18:42:00,
2013-03-07 13:47:00,50.5,21.7,30.18,WNW,292,2.0,6.0,32,0.00,,,0.00,meteohub,2013-03-07 18:47:00,
2013-03-07 13:55:00,50.5,21.0,30.18,NW,321,4.0,6.0,31,0.00,,,0.00,meteohub,2013-03-07 18:55:00,
2013-03-07 14:02:00,50.9,21.4,30.18,SW,234,3.0,6.0,31,0.00,,,0.00,meteohub,2013-03-07 19:02:00,
2013-03-07 14:07:00,51.1,21.6,30.18,NW,312,3.0,8.0,31,0.00,,,0.00,meteohub,2013-03-07 19:07:00,
2013-03-07 14:12:00,51.1,21.6,30.18,NNE,20,3.0,8.0,31,0.00,,,0.00,meteohub,2013-03-07 19:12:00,
2013-03-07 14:17:00,50.9,20.5,30.18,West,259,0.0,8.0,30,0.00,,,0.00,meteohub,2013-03-07 19:17:00,
2013-03-07 14:22:00,50.9,20.5,30.18,South,191,4.0,6.0,30,0.00,,,0.00,meteohub,2013-03-07 19:22:00,
2013-03-07 14:27:00,50.9,20.5,30.18,North,3,3.0,8.0,30,0.00,,,0.00,meteohub,2013-03-07 19:27:00,
2013-03-07 14:35:00,50.9,20.5,30.18,SSE,163,3.0,8.0,30,0.00,,,0.00,meteohub,2013-03-07 19:35:00,
2013-03-07 14:40:00,50.9,20.5,30.18,South,177,4.0,5.0,30,0.00,,,0.00,meteohub,2013-03-07 19:40:00,
2013-03-07 14:45:00,51.1,20.7,30.18,NNE,27,4.0,6.0,30,0.00,,,0.00,meteohub,2013-03-07 19:45:00,
2013-03-07 14:50:00,50.9,20.5,30.18,NNE,14,5.0,6.0,30,0.00,,,0.00,meteohub,2013-03-07 19:50:00,
2013-03-07 14:55:00,50.9,20.5,30.18,North,11,5.0,6.0,30,0.00,,,0.00,meteohub,2013-03-07 19:55:00,
2013-03-07 15:00:00,50.9,20.5,30.18,East,97,4.0,7.0,30,0.00,,,0.00,meteohub,2013-03-07 20:00:00,
2013-03-07 15:05:00,50.9,20.5,30.18,West,261,6.0,7.0,30,0.00,,,0.00,meteohub,2013-03-07 20:05:00,
2013-03-07 15:10:00,51.1,20.7,30.18,NNW,329,0.0,8.0,30,0.00,,,0.00,meteohub,2013-03-07 20:10:00,
2013-03-07 15:17:00,51.3,20.1,30.18,NNW,348,2.0,8.0,29,0.00,,,0.00,meteohub,2013-03-07 20:17:00,
2013-03-07 15:22:00,51.1,19.9,30.18,East,94,3.0,8.0,29,0.00,,,0.00,meteohub,2013-03-07 20:22:00,
2013-03-07 15:27:00,51.1,19.9,30.18,South,188,3.0,5.0,29,0.00,,,0.00,meteohub,2013-03-07 20:27:00,
2013-03-07 15:32:00,51.3,20.8,30.15,SSW,206,4.0,6.0,30,0.00,,,0.00,meteohub,2013-03-07 20:32:00,
2013-03-07 15:37:00,51.1,20.7,30.15,NNE,19,5.0,6.0,30,0.00,,,0.00,meteohub,2013-03-07 20:37:00,
2013-03-07 15:42:00,51.3,20.8,30.15,NNE,15,4.0,6.0,30,0.00,,,0.00,meteohub,2013-03-07 20:42:00,
2013-03-07 15:47:00,51.4,21.0,30.18,South,181,4.0,6.0,30,0.00,,,0.00,meteohub,2013-03-07 20:47:00,
2013-03-07 15:52:00,51.4,20.3,30.18,WSW,249,0.0,6.0,29,0.00,,,0.00,meteohub,2013-03-07 20:52:00,
2013-03-07 15:57:00,51.4,20.3,30.18,WSW,249,3.0,5.0,29,0.00,,,0.00,meteohub,2013-03-07 20:57:00,
2013-03-07 16:02:00,51.6,20.3,30.15,SW,219,2.0,5.0,29,0.00,,,0.00,meteohub,2013-03-07 21:02:00,
2013-03-07 16:07:00,51.6,20.3,30.15,WSW,248,3.0,5.0,29,0.00,,,0.00,meteohub,2013-03-07 21:07:00,
2013-03-07 16:12:00,51.6,21.2,30.15,NE,35,0.0,6.0,30,0.00,,,0.00,meteohub,2013-03-07 21:12:00,
2013-03-07 16:17:00,51.4,21.0,30.18,ENE,59,0.0,6.0,30,0.00,,,0.00,meteohub,2013-03-07 21:17:00,
2013-03-07 16:22:00,51.6,21.2,30.18,South,189,5.0,6.0,30,0.00,,,0.00,meteohub,2013-03-07 21:22:00,
2013-03-07 16:27:00,51.6,21.2,30.18,SW,220,0.0,6.0,30,0.00,,,0.00,meteohub,2013-03-07 21:27:00,
2013-03-07 16:32:00,51.6,21.2,30.18,NNE,26,3.0,6.0,30,0.00,,,0.00,meteohub,2013-03-07 21:32:00,
2013-03-07 16:37:00,51.4,21.0,30.18,North,10,0.0,6.0,30,0.00,,,0.00,meteohub,2013-03-07 21:37:00,
2013-03-07 16:42:00,51.3,20.1,30.18,East,85,2.0,4.0,29,0.00,,,0.00,meteohub,2013-03-07 21:42:00,
2013-03-07 16:47:00,51.4,21.0,30.18,North,0,3.0,5.0,30,0.00,,,0.00,meteohub,2013-03-07 21:47:00,
2013-03-07 16:52:00,51.3,20.8,30.18,SE,131,0.0,5.0,30,0.00,,,0.00,meteohub,2013-03-07 21:52:00,
2013-03-07 16:57:00,51.3,20.8,30.18,ESE,114,4.0,4.0,30,0.00,,,0.00,meteohub,2013-03-07 21:57:00,
2013-03-07 17:02:00,51.4,21.0,30.18,North,353,2.0,5.0,30,0.00,,,0.00,meteohub,2013-03-07 22:02:00,
2013-03-07 17:07:00,51.6,21.2,30.18,NW,325,0.0,6.0,30,0.00,,,0.00,meteohub,2013-03-07 22:07:00,
2013-03-07 17:12:00,51.4,21.0,30.18,WSW,249,0.0,6.0,30,0.00,,,0.00,meteohub,2013-03-07 22:12:00,
2013-03-07 17:17:00,51.1,20.7,30.18,West,260,2.0,5.0,30,0.00,,,0.00,meteohub,2013-03-07 22:17:00,
2013-03-07 17:22:00,50.9,20.5,30.18,WSW,239,0.0,5.0,30,0.00,,,0.00,meteohub,2013-03-07 22:22:00,
2013-03-07 17:27:00,50.7,21.2,30.18,WSW,257,2.0,5.0,31,0.00,,,0.00,meteohub,2013-03-07 22:27:00,
2013-03-07 17:32:00,50.7,21.2,30.18,WNW,284,0.0,4.0,31,0.00,,,0.00,meteohub,2013-03-07 22:32:00,
2013-03-07 17:37:00,50.7,21.2,30.18,SSW,202,4.0,4.0,31,0.00,,,0.00,meteohub,2013-03-07 22:37:00,
2013-03-07 17:42:00,50.7,21.2,30.18,West,273,3.0,4.0,31,0.00,,,0.00,meteohub,2013-03-07 22:42:00,
2013-03-07 17:47:00,50.5,21.0,30.18,SSW,212,3.0,4.0,31,0.00,,,0.00,meteohub,2013-03-07 22:47:00,
2013-03-07 17:52:00,50.2,20.7,30.18,WSW,254,0.0,4.0,31,0.00,,,0.00,meteohub,2013-03-07 22:52:00,
2013-03-07 17:57:00,50.2,20.7,30.18,SW,230,0.0,4.0,31,0.00,,,0.00,meteohub,2013-03-07 22:57:00,
2013-03-07 18:02:00,49.8,21.2,30.18,SW,230,0.0,4.0,32,0.00,,,0.00,meteohub,2013-03-07 23:02:00,
2013-03-07 18:07:00,49.6,21.7,30.18,SW,230,0.0,3.0,33,0.00,,,0.00,meteohub,2013-03-07 23:07:00,
2013-03-07 18:12:00,49.5,21.6,30.18,SW,230,0.0,0.0,33,0.00,,,0.00,meteohub,2013-03-07 23:12:00,
2013-03-07 18:17:00,49.1,21.9,30.18,SW,230,0.0,0.0,34,0.00,,,0.00,meteohub,2013-03-07 23:17:00,
2013-03-07 18:22:00,48.7,22.3,30.18,SW,230,0.0,0.0,35,0.00,,,0.00,meteohub,2013-03-07 23:22:00,
2013-03-07 18:27:00,48.6,22.1,30.18,SW,230,0.0,0.0,35,0.00,,,0.00,meteohub,2013-03-07 23:27:00,
2013-03-07 18:32:00,48.4,22.6,30.18,SW,230,0.0,0.0,36,0.00,,,0.00,meteohub,2013-03-07 23:32:00,
2013-03-07 18:37:00,48.0,23.0,30.18,SW,230,0.0,0.0,37,0.00,,,0.00,meteohub,2013-03-07 23:37:00,
2013-03-07 18:42:00,47.8,22.8,30.18,SW,230,0.0,0.0,37,0.00,,,0.00,meteohub,2013-03-07 23:42:00,
2013-03-07 18:47:00,47.7,22.6,30.21,SW,230,0.0,0.0,37,0.00,,,0.00,meteohub,2013-03-07 23:47:00,
2013-03-07 18:52:00,47.5,22.5,30.21,SW,230,0.0,0.0,37,0.00,,,0.00,meteohub,2013-03-07 23:52:00,
2013-03-07 18:57:00,47.3,22.3,30.21,SW,230,0.0,0.0,37,0.00,,,0.00,meteohub,2013-03-07 23:57:00,
2013-03-07 19:02:00,47.1,22.1,30.21,SW,230,0.0,0.0,37,0.00,,,0.00,meteohub,2013-03-08 00:02:00,
2013-03-07 19:07:00,46.9,22.6,30.21,SW,230,0.0,0.0,38,0.00,,,0.00,meteohub,2013-03-08 00:07:00,
2013-03-07 19:12:00,46.9,22.6,30.21,SW,230,0.0,0.0,38,0.00,,,0.00,meteohub,2013-03-08 00:12:00,
2013-03-07 19:17:00,46.6,22.3,30.21,SW,230,0.0,0.0,38,0.00,,,0.00,meteohub,2013-03-08 00:17:00,
2013-03-07 19:22:00,46.2,22.6,30.21,SW,230,3.0,0.0,39,0.00,,,0.00,meteohub,2013-03-08 00:22:00,
2013-03-07 19:27:00,46.2,22.6,30.21,SW,230,3.0,4.0,39,0.00,,,0.00,meteohub,2013-03-08 00:27:00,
2013-03-07 19:32:00,46.2,22.6,30.21,East,93,4.0,5.0,39,0.00,,,0.00,meteohub,2013-03-08 00:32:00,
2013-03-07 19:37:00,46.4,22.8,30.21,ENE,59,3.0,5.0,39,0.00,,,0.00,meteohub,2013-03-08 00:37:00,
2013-03-07 19:42:00,46.2,22.6,30.21,NE,39,4.0,5.0,39,0.00,,,0.00,meteohub,2013-03-08 00:42:00,
2013-03-07 19:47:00,46.2,22.6,30.21,ENE,76,3.0,5.0,39,0.00,,,0.00,meteohub,2013-03-08 00:47:00,
2013-03-07 19:52:00,46.2,21.9,30.21,ENE,78,4.0,5.0,38,0.00,,,0.00,meteohub,2013-03-08 00:52:00,
2013-03-07 19:57:00,46.2,21.9,30.21,ENE,77,4.0,6.0,38,0.00,,,0.00,meteohub,2013-03-08 00:57:00,
2013-03-07 20:02:00,46.2,21.9,30.21,NE,44,3.0,6.0,38,0.00,,,0.00,meteohub,2013-03-08 01:02:00,
2013-03-07 20:07:00,45.9,21.7,30.21,ENE,71,2.0,6.0,38,0.00,,,0.00,meteohub,2013-03-08 01:07:00,
2013-03-07 20:12:00,45.7,21.6,30.21,ENE,77,4.0,6.0,38,0.00,,,0.00,meteohub,2013-03-08 01:12:00,
2013-03-07 20:17:00,45.7,21.6,30.21,ESE,116,3.0,6.0,38,0.00,,,0.00,meteohub,2013-03-08 01:17:00,
2013-03-07 20:25:00,45.5,21.4,30.21,ESE,113,5.0,5.0,38,0.00,,,0.00,meteohub,2013-03-08 01:25:00,
2013-03-07 20:30:00,45.3,21.2,30.21,ESE,118,4.0,5.0,38,0.00,,,0.00,meteohub,2013-03-08 01:30:00,
2013-03-07 20:35:00,45.1,21.0,30.21,East,90,5.0,6.0,38,0.00,,,0.00,meteohub,2013-03-08 01:35:00,
2013-03-07 20:40:00,45.0,20.8,30.21,East,88,0.0,6.0,38,0.00,,,0.00,meteohub,2013-03-08 01:40:00,
2013-03-07 20:45:00,44.6,20.5,30.24,East,89,3.0,6.0,38,0.00,,,0.00,meteohub,2013-03-08 01:45:00,
2013-03-07 20:51:00,44.6,20.5,30.24,East,99,0.0,6.0,38,0.00,,,0.00,meteohub,2013-03-08 01:51:00,
2013-03-07 20:56:00,44.2,20.3,30.24,ESE,108,3.0,4.0,38,0.00,,,0.00,meteohub,2013-03-08 01:56:00,
2013-03-07 21:02:00,44.1,20.1,30.24,East,97,5.0,5.0,38,0.00,,,0.00,meteohub,2013-03-08 02:02:00,
2013-03-07 21:07:00,44.1,20.1,30.24,East,90,2.0,5.0,38,0.00,,,0.00,meteohub,2013-03-08 02:07:00,
2013-03-07 21:12:00,43.7,19.8,30.24,East,88,2.0,5.0,38,0.00,,,0.00,meteohub,2013-03-08 02:12:00,
2013-03-07 21:17:00,43.5,19.6,30.24,East,96,3.0,6.0,38,0.00,,,0.00,meteohub,2013-03-08 02:17:00,
2013-03-07 21:22:00,43.3,19.4,30.24,NE,55,0.0,6.0,38,0.00,,,0.00,meteohub,2013-03-08 02:22:00,
2013-03-07 21:27:00,43.3,19.4,30.24,NE,56,5.0,5.0,38,0.00,,,0.00,meteohub,2013-03-08 02:27:00,
2013-03-07 21:32:00,43.2,19.2,30.24,ESE,118,3.0,5.0,38,0.00,,,0.00,meteohub,2013-03-08 02:32:00,
2013-03-07 21:37:00,43.0,19.0,30.24,SE,145,3.0,6.0,38,0.00,,,0.00,meteohub,2013-03-08 02:37:00,
2013-03-07 21:42:00,42.8,18.9,30.24,ESE,107,5.0,6.0,38,0.00,,,0.00,meteohub,2013-03-08 02:42:00,
2013-03-07 21:47:00,42.6,18.9,30.24,ENE,63,5.0,6.0,38,0.00,,,0.00,meteohub,2013-03-08 02:47:00,
2013-03-07 21:52:00,42.4,18.7,30.24,ESE,120,4.0,7.0,38,0.00,,,0.00,meteohub,2013-03-08 02:52:00,
2013-03-07 21:57:00,42.3,18.5,30.24,ESE,106,4.0,7.0,38,0.00,,,0.00,meteohub,2013-03-08 02:57:00,
2013-03-07 22:02:00,42.1,18.3,30.24,ESE,118,0.0,7.0,38,0.00,,,0.00,meteohub,2013-03-08 03:02:00,
2013-03-07 22:07:00,41.9,18.1,30.24,SE,128,4.0,6.0,38,0.00,,,0.00,meteohub,2013-03-08 03:07:00,
2013-03-07 22:12:00,41.7,18.0,30.24,ESE,122,4.0,6.0,38,0.00,,,0.00,meteohub,2013-03-08 03:12:00,
2013-03-07 22:17:00,41.5,17.8,30.24,ENE,59,0.0,5.0,38,0.00,,,0.00,meteohub,2013-03-08 03:17:00,
2013-03-07 22:22:00,41.5,17.8,30.24,ESE,103,2.0,5.0,38,0.00,,,0.00,meteohub,2013-03-08 03:22:00,
2013-03-07 22:27:00,41.2,17.4,30.24,ESE,111,2.0,6.0,38,0.00,,,0.00,meteohub,2013-03-08 03:27:00,
2013-03-07 22:32:00,41.0,17.4,30.24,SE,129,2.0,6.0,38,0.00,,,0.00,meteohub,2013-03-08 03:32:00,
2013-03-07 22:37:00,41.0,17.4,30.24,ESE,112,3.0,6.0,38,0.00,,,0.00,meteohub,2013-03-08 03:37:00,
2013-03-07 22:42:00,40.6,17.1,30.24,ESE,117,3.0,5.0,38,0.00,,,0.00,meteohub,2013-03-08 03:42:00,
2013-03-07 22:47:00,40.6,17.1,30.24,ESE,107,3.0,4.0,38,0.00,,,0.00,meteohub,2013-03-08 03:47:00,
2013-03-07 22:53:00,40.5,16.9,30.24,East,101,3.0,4.0,38,0.00,,,0.00,meteohub,2013-03-08 03:53:00,
2013-03-07 23:01:00,40.1,16.5,30.24,East,94,0.0,4.0,38,0.00,,,0.00,meteohub,2013-03-08 04:01:00,
2013-03-07 23:06:00,40.1,17.1,30.24,SE,138,3.0,4.0,39,0.00,,,0.00,meteohub,2013-03-08 04:06:00,
2013-03-07 23:12:00,39.9,16.9,30.24,SE,143,0.0,4.0,39,0.00,,,0.00,meteohub,2013-03-08 04:12:00,
2013-03-07 23:17:00,39.7,16.9,30.24,ESE,118,3.0,4.0,39,0.00,,,0.00,meteohub,2013-03-08 04:17:00,
2013-03-07 23:22:00,39.6,16.7,30.24,ESE,119,3.0,7.0,39,0.00,,,0.00,meteohub,2013-03-08 04:22:00,
2013-03-07 23:27:00,39.4,16.5,30.24,East,101,4.0,7.0,39,0.00,,,0.00,meteohub,2013-03-08 04:27:00,
2013-03-07 23:32:00,39.2,16.3,30.27,ESE,108,2.0,7.0,39,0.00,,,0.00,meteohub,2013-03-08 04:32:00,
2013-03-07 23:37:00,39.2,16.3,30.27,ESE,111,4.0,6.0,39,0.00,,,0.00,meteohub,2013-03-08 04:37:00,
2013-03-07 23:42:00,39.0,16.7,30.27,SE,135,3.0,6.0,40,0.00,,,0.00,meteohub,2013-03-08 04:42:00,
2013-03-07 23:47:00,38.8,16.5,30.27,ESE,116,3.0,6.0,40,0.00,,,0.00,meteohub,2013-03-08 04:47:00,
2013-03-07 23:52:00,38.8,16.5,30.27,South,179,5.0,6.0,40,0.00,,,0.00,meteohub,2013-03-08 04:52:00,
2013-03-07 23:57:00,38.7,16.3,30.27,SE,141,2.0,6.0,40,0.00,,,0.00,meteohub,2013-03-08 04:57:00,